Date String (YYYY-MM-DD hh:mm:ss) UTC,Instrument flags,absolute air pressure of the measurement (hPa),sample flow rate (lpm),inlet stack bypass flow (lpm),air temperature of the measurement (°C),ambient temperature measured by the external sensor (°C),aerosol sample conditioner tube jacket temperature (°C),OPC LED temperature (°C),internal box temperature (°C),relative humidity of the measurement (%),span deviation,mass concentration of particles derived from Lorenz-Mie calculation of OPC scattering (μg/m³),mass concentration of particles derived from Lorenz-Mie calculation of OPC scattering (μg/m³),mass concentration of particles derived from Lorenz-Mie calculation of OPC scattering (μg/m³)
DateTimeUTC,F1_M11,P_M11,Q1_M11,Q2_M11,T1_M11,T2_M11,T3_M11,T4_M11,T5_M11,U1_M11,ZSPAN_M11,X0_M11,X2_M11,X1_M11
2023-06-19 12:00:00,SystemResetWarning,0824.9,5.00,000.00,030.5,028.7,000.0,039.1,032.0,14.2,0000.0,0009.06,0004.17,0003.38
2023-06-19 12:01:00,SystemResetWarning,0824.9,5.00,000.00,030.5,028.7,000.0,039.1,031.9,14.2,0000.0,0009.05,0004.15,0003.37
2023-06-19 12:02:00,SystemResetWarning,0824.9,5.01,000.00,030.5,028.7,000.0,039.1,031.9,14.2,0000.0,0009.03,0004.15,0003.36
2023-06-19 12:03:00,SystemResetWarning,0824.9,5.00,000.00,030.5,028.7,000.0,039.1,031.9,14.2,0000.0,0009.05,0004.14,0003.35
2023-06-19 12:04:00,SystemResetWarning,0824.9,4.99,000.00,030.5,028.7,000.0,039.1,031.9,14.0,0000.0,0009.03,0004.14,0003.36
2023-06-19 12:05:00,SystemResetWarning,0824.9,4.99,000.00,030.5,028.7,000.0,039.1,031.9,13.8,0000.0,0009.03,0004.15,0003.36
2023-06-19 12:06:00,SystemResetWarning,0824.9,5.00,000.00,030.5,028.7,000.0,039.1,031.9,13.7,0000.0,0009.13,0004.22,0003.38
2023-06-19 12:07:00,SystemResetWarning,0824.9,5.01,000.00,030.5,028.7,000.0,039.1,031.9,13.9,0000.0,0009.24,0004.23,0003.38
2023-06-19 12:08:00,SystemResetWarning,0824.9,5.01,000.00,030.5,028.7,000.0,039.1,031.9,13.8,0000.0,0009.24,0004.25,0003.39
2023-06-19 12:09:00,SystemResetWarning,0824.9,4.99,000.00,030.5,028.7,000.0,039.1,031.9,14.0,0000.0,0009.11,0004.32,0003.41
2023-06-19 12:10:00,SystemResetWarning,0824.9,4.99,000.00,030.5,028.7,000.0,039.1,031.9,13.6,0000.0,0009.29,0004.36,0003.42
2023-06-19 12:11:00,SystemResetWarning,0824.9,5.00,000.00,030.5,028.7,000.0,039.1,031.9,13.5,0000.0,0009.40,0004.42,0003.44
2023-06-19 12:12:00,SystemResetWarning,0824.9,5.01,000.00,030.5,028.8,000.0,039.1,031.9,13.6,0000.0,0009.56,0004.42,0003.45
2023-06-19 12:13:00,SystemResetWarning,0824.9,5.00,000.00,030.5,028.8,000.0,039.1,031.9,13.1,0000.0,0010.07,0004.46,0003.46
2023-06-19 12:14:00,SystemResetWarning,0824.9,5.00,000.00,030.5,028.8,000.0,039.1,031.9,13.0,0000.0,0010.35,0004.51,0003.46
2023-06-19 12:15:00,SystemResetWarning,0824.9,5.00,000.00,030.5,028.8,000.0,039.1,031.9,12.8,0000.0,0010.75,0004.58,0003.47
2023-06-19 12:16:00,SystemResetWarning,0824.9,5.00,000.00,030.5,028.8,000.0,039.1,032.0,12.9,0000.0,0011.38,0004.59,0003.47
2023-06-19 12:17:00,SystemResetWarning,0824.9,5.00,000.00,030.5,028.7,000.0,039.1,031.9,12.6,0000.0,0012.29,0004.59,0003.46
2023-06-19 12:18:00,SystemResetWarning,0824.9,4.99,000.00,030.5,028.8,000.0,039.1,031.9,12.6,0000.0,0012.45,0004.58,0003.46
2023-06-19 12:19:00,SystemResetWarning,0824.9,5.00,000.00,030.5,028.8,000.0,039.1,031.9,12.9,0000.0,0012.45,0004.60,0003.45
2023-06-19 12:20:00,SystemResetWarning,0824.9,5.00,000.00,030.5,028.7,000.0,039.1,031.9,13.1,0000.0,0012.38,0004.61,0003.44
2023-06-19 12:21:00,SystemResetWarning,0824.9,5.01,000.00,030.5,028.7,000.0,039.1,031.9,12.7,0000.0,0012.23,0004.59,0003.44
2023-06-19 12:22:00,SystemResetWarning,0824.9,5.00,000.00,030.5,028.7,000.0,039.1,031.9,12.5,0000.0,0011.95,0004.53,0003.43
2023-06-19 12:23:00,SystemResetWarning,0824.9,5.00,000.00,030.5,028.7,000.0,039.1,031.9,12.8,0000.0,0011.57,0004.54,0003.43
2023-06-19 12:24:00,SystemResetWarning,0824.9,5.00,000.00,030.5,028.7,000.0,039.1,031.9,12.4,0000.0,0011.08,0004.50,0003.43
2023-06-19 12:25:00,SystemResetWarning,0824.9,5.01,000.00,030.5,028.7,000.0,039.1,031.9,12.7,0000.0,0011.06,0004.45,0003.44
2023-06-19 12:26:00,SystemResetWarning,0824.9,5.00,000.00,030.5,028.7,000.0,039.1,031.9,13.1,0000.0,0011.87,0004.42,0003.44
2023-06-19 12:27:00,SystemResetWarning,0824.9,5.00,000.00,030.5,028.7,000.0,039.1,031.9,12.9,0000.0,0011.34,0004.40,0003.44
2023-06-19 12:28:00,SystemResetWarning,0824.9,5.00,000.00,030.5,028.7,000.0,039.1,032.0,12.7,0000.0,0010.58,0004.37,0003.43
2023-06-19 12:29:00,SystemResetWarning,0824.9,5.00,000.00,030.5,028.7,000.0,039.1,032.0,12.9,0000.0,0010.45,0004.39,0003.43
2023-06-19 12:30:00,SystemResetWarning,0824.9,5.00,000.00,030.5,028.7,000.0,039.1,031.9,13.1,0000.0,0010.76,0004.46,0003.44
2023-06-19 12:31:00,SystemResetWarning,0824.9,4.99,000.00,030.5,028.7,000.0,039.1,031.9,13.5,0000.0,0011.09,0004.44,0003.45
2023-06-19 12:32:00,SystemResetWarning,0824.9,5.00,000.00,030.6,028.7,000.0,039.1,031.9,13.5,0000.0,0011.33,0004.46,0003.45
2023-06-19 12:33:00,SystemResetWarning,0824.9,5.01,000.00,030.6,028.8,000.0,039.1,031.9,13.6,0000.0,0011.62,0004.47,0003.46
2023-06-19 12:34:00,SystemResetWarning,0824.9,5.01,000.00,030.5,028.8,000.0,039.1,031.9,14.2,0000.0,0012.18,0004.48,0003.46
2023-06-19 12:35:00,SystemResetWarning,0824.9,5.00,000.00,030.5,028.8,000.0,039.1,031.9,14.5,0000.0,0012.42,0004.50,0003.47
2023-06-19 12:36:00,SystemResetWarning,0824.9,4.99,000.00,030.6,028.8,000.0,039.1,031.9,15.1,0000.0,0012.57,0004.51,0003.47
2023-06-19 12:37:00,SystemResetWarning,0824.9,4.99,000.00,030.6,028.8,000.0,039.1,032.0,14.1,0000.0,0011.56,0004.53,0003.48
2023-06-19 12:38:00,SystemResetWarning,0824.9,5.00,000.00,030.6,028.8,000.0,039.1,031.9,13.6,0000.0,0011.74,0004.54,0003.49
2023-06-19 12:39:00,SystemResetWarning,0824.9,5.00,000.00,030.6,028.8,000.0,039.1,031.9,13.5,0000.0,0012.32,0004.60,0003.50
2023-06-19 12:40:00,SystemResetWarning,0824.9,5.00,000.00,030.6,028.8,000.0,039.1,031.9,13.5,0000.0,0012.85,0004.55,0003.50
2023-06-19 12:41:00,SystemResetWarning,0824.9,5.01,000.00,030.6,028.9,000.0,039.1,032.0,13.5,0000.0,0013.40,0004.44,0003.50
2023-06-19 12:42:00,SystemResetWarning,0824.9,5.00,000.00,030.6,028.5,000.0,039.1,032.0,13.4,0000.0,0013.20,0004.44,0003.49
2023-06-19 12:43:00,SystemResetWarning,0825.0,4.99,000.00,030.6,026.2,000.0,039.1,031.9,13.5,0000.0,0013.03,0004.42,0003.49
2023-06-19 12:44:00,SystemResetWarning,0824.9,5.02,000.00,030.5,024.9,000.0,039.0,031.9,13.4,0000.0,0012.96,0004.46,0003.49
2023-06-19 12:45:00,SystemResetWarning,0825.0,5.00,000.00,030.5,025.2,000.0,038.9,031.6,13.8,0000.0,0013.12,0004.49,0003.49
2023-06-19 12:46:00,SystemResetWarning,0825.1,4.99,000.00,030.3,025.6,000.0,038.9,031.4,13.9,0000.0,0013.54,0004.46,0003.50
2023-06-19 12:47:00,SystemResetWarning,0825.1,5.01,000.00,030.2,026.0,000.0,038.9,031.4,14.9,0000.0,0013.18,0004.45,0003.50
2023-06-19 12:48:00,SystemResetWarning,0825.1,4.99,000.00,030.2,026.4,000.0,038.9,031.4,15.9,0000.0,0013.88,0004.42,0003.49
2023-06-19 12:49:00,SystemResetWarning,0825.1,5.00,000.00,030.2,026.8,000.0,038.9,031.4,16.1,0000.0,0013.96,0004.40,0003.48
2023-06-19 12:50:00,SystemResetWarning,0825.1,5.00,000.00,030.1,027.1,000.0,038.8,031.4,16.0,0000.0,0013.27,0004.41,0003.48
2023-06-19 12:51:00,SystemResetWarning,0825.1,5.00,000.00,030.1,027.4,000.0,038.8,031.4,15.8,0000.0,0013.26,0004.40,0003.48
2023-06-19 12:52:00,SystemResetWarning,0825.1,5.00,000.00,030.1,027.6,000.0,038.8,031.5,15.1,0000.0,0012.86,0004.44,0003.48
2023-06-19 12:53:00,SystemResetWarning,0825.1,4.99,000.00,030.1,027.8,000.0,038.8,031.5,15.2,0000.0,0012.33,0004.43,0003.49
2023-06-19 12:54:00,SystemResetWarning,0825.1,4.99,000.00,030.1,027.9,000.0,038.8,031.5,15.2,0000.0,0012.27,0004.45,0003.50
2023-06-19 12:55:00,SystemResetWarning,0825.1,5.00,000.00,030.1,028.0,000.0,038.8,031.5,15.4,0000.0,0012.17,0004.44,0003.49
2023-06-19 12:56:00,SystemResetWarning,0825.1,5.00,000.00,030.1,028.1,000.0,038.8,031.5,15.6,0000.0,0011.73,0004.42,0003.49
2023-06-19 12:57:00,SystemResetWarning,0825.1,5.01,000.00,030.1,028.2,000.0,038.7,031.5,16.8,0000.0,0011.29,0004.44,0003.49
2023-06-19 12:58:00,SystemResetWarning,0825.1,5.00,000.00,030.1,028.2,000.0,038.7,031.6,17.4,0000.0,0011.59,0004.46,0003.48
2023-06-19 12:59:00,SystemResetWarning,0825.1,5.00,000.00,030.1,028.3,000.0,038.7,031.6,16.9,0000.0,0011.18,0004.46,0003.48
